Change the Weather History Date:

Monday, April 2, 2012

  Actual Average Record
Temperature  
Mean Temperature 79 °F 75 °F  
Max Temperature 84 °F 80 °F 88 °F (1883)
Min Temperature 73 °F 70 °F 48 °F (1987)
Degree Days  
Heating Degree Days 0 0  
Month to date heating degree days 0 0  
Since 1 July heating degree days 28 73  
Cooling Degree Days 14 10  
Month to date cooling degree days 27 20  
Year to date cooling degree days 870 630  
Growing Degree Days 28 (Base 50)    
Moisture  
Dew Point 68 °F    
Average Humidity 75    
Maximum Humidity 84    
Minimum Humidity 65    
Precipitation  
Precipitation 0.00 in 0.07 in 2.03 in (1939)
Month to date precipitation 0.00 0.14  
Year to date precipitation 6.79 5.72  
Snow  
Snow 0.00 in - - ()
Month to date snowfall 0.0  
Since 1 July snowfall 0.0  
Snow Depth 0.00 in    
Sea Level Pressure  
Sea Level Pressure 29.92 in    
Wind  
Wind Speed 5 mph (ENE)    
Max Wind Speed 12 mph    
Max Gust Speed 17 mph    
Visibility 10 miles    
Events      
T = Trace of Precipitation, MM = Missing Value Source: NWS Daily Summary

Daily Weather History Graph

Daily Weather History Graph

Search for Another Location

Airport or City:

Trip Planner

Search our weather history database for the weather conditions in past years. The results will help you decide how hot, cold, wet, or windy it might be!

Date:

Astronomy

Apr. 02, 2012 Rise Set
Actual Time 7:17 AM EDT 7:43 PM EDT
Civil Twilight 6:54 AM EDT 8:06 PM EDT
Nautical Twilight 6:27 AM EDT 8:33 PM EDT
Astronomical Twilight 6:00 AM EDT 9:00 PM EDT
Moon 3:43 PM EDT (4/2) 4:01 AM EDT (4/2)
Length of Visible Light 13h 12m
Length of Day
12h 26m
Waxing Gibbous, 78% of the Moon is Illuminated
Apr 2
Waxing Gibbous
Apr 6
Full
Apr 13
Last Quarter
Apr 21
New
Apr 29
First Quarter

Hourly Weather History & Observations

Time (EDT) Temp. Heat Index Dew Point Humidity Pressure Visibility Wind Dir Wind Speed Gust Speed Precip Events Conditions
12:53 AM 75.0 °F - 64.9 °F 71% 29.94 in 10.0 mi Calm Calm - N/A   Clear
1:53 AM 73.0 °F - 68.0 °F 84% 29.94 in 10.0 mi Calm Calm - N/A   Clear
2:53 AM 73.0 °F - 66.9 °F 81% 29.92 in 10.0 mi Calm Calm - N/A   Clear
3:53 AM 73.0 °F - 68.0 °F 84% 29.90 in 10.0 mi NNE 3.5 mph - N/A   Clear
4:53 AM 73.9 °F - 66.9 °F 79% 29.89 in 10.0 mi NNE 3.5 mph - N/A   Clear
5:53 AM 73.9 °F - 66.0 °F 76% 29.89 in 10.0 mi NNE 3.5 mph - N/A   Clear
6:53 AM 73.0 °F - 66.0 °F 79% 29.91 in 10.0 mi NE 3.5 mph - N/A   Clear
7:53 AM 73.9 °F - 66.9 °F 79% 29.92 in 10.0 mi ENE 3.5 mph - N/A   Clear
8:53 AM 77.0 °F - 66.9 °F 71% 29.93 in 10.0 mi ENE 4.6 mph - N/A   Clear
9:53 AM 78.1 °F - 66.9 °F 68% 29.94 in 10.0 mi ESE 6.9 mph - N/A   Clear
10:53 AM 78.1 °F - 68.0 °F 71% 29.96 in 10.0 mi Variable 4.6 mph - N/A   Clear
11:53 AM 80.1 °F 82.7 °F 68.0 °F 67% 29.96 in 10.0 mi SE 6.9 mph - N/A   Clear
12:53 PM 80.1 °F 82.7 °F 68.0 °F 67% 29.96 in 10.0 mi SSE 5.8 mph - N/A   Clear
1:53 PM 80.1 °F 82.9 °F 69.1 °F 69% 29.95 in 10.0 mi SE 3.5 mph - N/A   Clear
2:53 PM 80.1 °F 82.9 °F 69.1 °F 69% 29.93 in 10.0 mi SSE 5.8 mph - N/A   Clear
3:53 PM 81.0 °F 84.1 °F 69.1 °F 67% 29.91 in 10.0 mi Calm Calm - N/A   Scattered Clouds
4:02 PM 80.6 °F 83.9 °F 69.8 °F 70% 29.90 in 10.0 mi NNW 3.5 mph - N/A   Mostly Cloudy
4:26 PM 82.4 °F 86.3 °F 69.8 °F 66% 29.90 in 10.0 mi North 6.9 mph - N/A   Partly Cloudy
4:53 PM 82.9 °F 87.0 °F 70.0 °F 65% 29.89 in 10.0 mi North 8.1 mph - N/A   Clear
5:53 PM 82.0 °F 85.9 °F 70.0 °F 67% 29.88 in 10.0 mi North 10.4 mph - N/A   Partly Cloudy
6:53 PM 80.1 °F 83.2 °F 70.0 °F 71% 29.90 in 10.0 mi NNE 9.2 mph - N/A   Scattered Clouds
7:34 PM 78.8 °F - 69.8 °F 74% 29.92 in 10.0 mi NNW 5.8 mph - N/A   Mostly Cloudy
7:53 PM 78.1 °F - 69.1 °F 74% 29.92 in 10.0 mi NNE 4.6 mph - N/A   Scattered Clouds
8:53 PM 77.0 °F - 69.1 °F 76% 29.93 in 10.0 mi Calm Calm - N/A   Clear
9:53 PM 77.0 °F - 69.1 °F 76% 29.95 in 10.0 mi SE 3.5 mph - N/A   Clear
10:53 PM 77.0 °F - 69.1 °F 76% 29.95 in 10.0 mi East 4.6 mph - N/A   Clear
11:53 PM 75.9 °F - 69.1 °F 79% 29.94 in 10.0 mi ESE 6.9 mph - N/A   Clear